Buena Vista, CO

6:27 AM MDT on May 28, 2017 (GMT -0600)
Buena Vista

Weather History for KAEJ - February, 2014

Change the Weather History Date:

Saturday, February 8, 2014

  Actual Average (KLXV) Record (KLXV)
Temperature  
Mean Temperature 30 °F -  
Max Temperature 37 °F 26 °F 50 °F (1987)
Min Temperature 23 °F 5 °F -24 °F (1989)
Degree Days  
Heating Degree Days 35    
Moisture  
Dew Point 20 °F    
Average Humidity 63    
Maximum Humidity 80    
Minimum Humidity 49    
Precipitation  
Precipitation 0.00 in - - ()
Sea Level Pressure  
Sea Level Pressure 29.95 in    
Wind  
Wind Speed 7 mph (SSW)    
Max Wind Speed 23 mph    
Max Gust Speed 29 mph    
Visibility 10 miles    
Events Snow    
Averages and records for this station are not official NWS values.
T = Trace of Precipitation, MM = Missing Value Source: NWS Daily Summary

Daily Weather History Graph

Daily Weather History Graph

Search for Another Location

Airport or City:

Trip Planner

Search our weather history database for the weather conditions in past years. The results will help you decide how hot, cold, wet, or windy it might be!

Date:

Astronomy

Feb. 08, 2014 Rise Set
Actual Time 7:03 AM MST 5:34 PM MST
Civil Twilight 6:35 AM MST 6:01 PM MST
Nautical Twilight 6:04 AM MST 6:33 PM MST
Astronomical Twilight 5:33 AM MST 7:04 PM MST
Moon 12:31 PM MST (2/8) 2:17 AM MST (2/8)
Length of Visible Light 11h 26m
Length of Day
10h 30m
Waxing Gibbous, 69% of the Moon is Illuminated
Feb 8
Waxing Gibbous
Feb 14
Full
Feb 22
Last Quarter
Mar 1
New
Mar 8
First Quarter

Hourly Weather History & Observations

Time (MST) Temp. Windchill Dew Point Humidity Pressure Visibility Wind Dir Wind Speed Gust Speed Precip Events Conditions
12:15 AM 27.3 °F 20.9 °F 12.0 °F 53% 29.90 in 10.0 mi West 5.8 mph - N/A   Scattered Clouds
12:35 AM 26.1 °F 16.8 °F 12.4 °F 56% 29.91 in 10.0 mi West 9.2 mph - N/A   Scattered Clouds
12:55 AM 27.0 °F 15.6 °F 13.3 °F 56% 29.90 in 10.0 mi West 13.8 mph 19.6 mph N/A   Scattered Clouds
1:15 AM 25.3 °F 19.7 °F 12.7 °F 59% 29.90 in 10.0 mi WSW 4.6 mph - N/A   Clear
1:35 AM 25.0 °F 14.2 °F 13.8 °F 63% 29.89 in 10.0 mi West 11.5 mph - N/A   Scattered Clouds
1:55 AM 26.8 °F 19.3 °F 12.0 °F 54% 29.89 in 10.0 mi SE 6.9 mph - N/A   Scattered Clouds
2:15 AM 24.8 °F 15.3 °F 13.1 °F 61% 29.89 in 10.0 mi SE 9.2 mph - N/A   Overcast
2:35 AM 23.4 °F 14.3 °F 14.0 °F 67% 29.90 in 10.0 mi SE 8.1 mph - N/A   Overcast
2:55 AM 23.9 °F 11.7 °F 14.5 °F 67% 29.89 in 10.0 mi SE 13.8 mph 18.4 mph N/A   Overcast
3:15 AM 23.5 °F 13.0 °F 14.5 °F 69% 29.86 in 10.0 mi SE 10.4 mph - N/A   Scattered Clouds
3:35 AM 24.1 °F 11.5 °F 16.0 °F 71% 29.87 in 10.0 mi ESE 15.0 mph 28.8 mph N/A   Scattered Clouds
3:55 AM 24.8 °F 14.0 °F 15.8 °F 69% 29.86 in 10.0 mi SE 11.5 mph 18.4 mph N/A   Mostly Cloudy
4:15 AM 24.1 °F 17.0 °F 15.1 °F 69% 29.86 in 10.0 mi ESE 5.8 mph - N/A   Scattered Clouds
4:35 AM 23.5 °F 14.5 °F 14.2 °F 67% 29.86 in 10.0 mi SE 8.1 mph - N/A   Mostly Cloudy
4:55 AM 26.2 °F - 14.7 °F 62% 29.86 in 10.0 mi Calm Calm - N/A   Mostly Cloudy
5:15 AM 23.9 °F 18.0 °F 14.5 °F 67% 29.86 in 10.0 mi SW 4.6 mph - N/A   Mostly Cloudy
5:35 AM 25.0 °F 19.3 °F 14.4 °F 64% 29.86 in 10.0 mi SW 4.6 mph - N/A   Overcast
5:55 AM 25.0 °F - 14.9 °F 66% 29.87 in 10.0 mi Calm Calm - N/A   Overcast
6:15 AM 26.4 °F 19.8 °F 15.1 °F 62% 29.87 in 10.0 mi ESE 5.8 mph - N/A   Overcast
6:35 AM 24.3 °F - 14.9 °F 68% 29.88 in 10.0 mi Calm Calm - N/A   Mostly Cloudy
6:55 AM 24.8 °F - 15.1 °F 67% 29.89 in 10.0 mi Calm Calm - N/A   Overcast
7:15 AM 24.4 °F - 15.6 °F 69% 29.90 in 10.0 mi Calm Calm - N/A   Overcast
7:35 AM 24.6 °F - 15.4 °F 68% 29.91 in 10.0 mi Calm Calm - N/A   Overcast
7:55 AM 24.1 °F - 15.3 °F 69% 29.92 in 10.0 mi Calm Calm - N/A   Overcast
8:15 AM 24.4 °F - 16.2 °F 71% 29.93 in 10.0 mi Calm Calm - N/A   Overcast
8:35 AM 26.2 °F - 16.5 °F 67% 29.93 in 10.0 mi Calm Calm - N/A   Overcast
8:55 AM 29.1 °F 24.1 °F 17.4 °F 62% 29.93 in 10.0 mi SE 4.6 mph - N/A   Overcast
9:15 AM 28.8 °F 23.7 °F 19.0 °F 67% 29.94 in 10.0 mi North 4.6 mph - N/A   Overcast
9:35 AM 30.0 °F 26.5 °F 20.1 °F 67% 29.94 in 10.0 mi SE 3.5 mph - N/A   Overcast
9:55 AM 32.2 °F 25.8 °F 20.5 °F 62% 29.94 in 10.0 mi ESE 6.9 mph - N/A   Overcast
10:15 AM 32.9 °F - 19.2 °F 57% 29.94 in 10.0 mi Calm Calm - N/A   Overcast
10:35 AM 34.3 °F - 19.4 °F 54% 29.94 in 10.0 mi Calm Calm - N/A   Mostly Cloudy
10:55 AM 35.1 °F - 19.2 °F 53% 29.94 in 10.0 mi Calm Calm - N/A   Mostly Cloudy
11:15 AM 36.0 °F - 18.3 °F 49% 29.94 in 10.0 mi Calm Calm - N/A   Scattered Clouds
11:35 AM 36.9 °F - 19.0 °F 49% 29.94 in 10.0 mi Calm Calm - N/A   Mostly Cloudy
11:55 AM 36.7 °F 25.4 °F 20.3 °F 52% 29.93 in 10.0 mi WSW 23.0 mph 27.6 mph N/A   Mostly Cloudy
12:15 PM 37.2 °F 27.0 °F 20.1 °F 50% 29.93 in 10.0 mi WSW 19.6 mph 27.6 mph N/A   Mostly Cloudy
12:35 PM 36.9 °F 28.7 °F 22.6 °F 56% 29.93 in 10.0 mi West 12.7 mph 20.7 mph N/A   Overcast
12:55 PM 37.2 °F 29.1 °F 19.4 °F 49% 29.93 in 10.0 mi WSW 12.7 mph 24.2 mph N/A   Overcast
1:15 PM 36.9 °F 27.8 °F 21.4 °F 54% 29.93 in 10.0 mi West 15.0 mph 19.6 mph N/A   Overcast
1:35 PM 37.2 °F 28.3 °F 20.3 °F 50% 29.92 in 10.0 mi West 15.0 mph 21.9 mph N/A   Overcast
1:55 PM 36.7 °F 28.0 °F 20.1 °F 51% 29.92 in 10.0 mi West 13.8 mph 27.6 mph N/A   Mostly Cloudy
2:15 PM 36.9 °F 29.6 °F 21.7 °F 54% 29.94 in 10.0 mi WNW 10.4 mph 27.6 mph N/A   Overcast
2:35 PM 36.9 °F 33.1 °F 21.6 °F 54% 29.95 in 10.0 mi NW 4.6 mph - N/A   Overcast
2:55 PM 36.0 °F 32.1 °F 23.2 °F 60% 29.95 in 10.0 mi NW 4.6 mph - N/A   Overcast
3:15 PM 36.3 °F 30.8 °F 23.7 °F 60% 29.95 in 10.0 mi NW 6.9 mph - N/A   Overcast
3:35 PM 37.2 °F 28.3 °F 22.3 °F 55% 29.95 in 10.0 mi West 15.0 mph 23.0 mph N/A   Overcast
3:55 PM 37.0 °F 28.9 °F 21.7 °F 54% 29.96 in 10.0 mi West 12.7 mph 23.0 mph N/A   Overcast
4:15 PM 35.8 °F 27.3 °F 22.8 °F 59% 29.97 in 10.0 mi West 12.7 mph 19.6 mph N/A   Overcast
4:35 PM 34.7 °F 26.9 °F 22.8 °F 62% 29.98 in 10.0 mi West 10.4 mph - N/A   Overcast
4:55 PM 35.1 °F 26.9 °F 21.7 °F 58% 29.98 in 10.0 mi West 11.5 mph - N/A   Overcast
5:15 PM 34.2 °F 26.8 °F 22.1 °F 61% 29.99 in 10.0 mi West 9.2 mph 16.1 mph N/A   Overcast
5:35 PM 34.5 °F 26.2 °F 22.6 °F 62% 29.99 in 10.0 mi West 11.5 mph - N/A   Overcast
5:55 PM 33.4 °F 29.1 °F 22.6 °F 65% 30.00 in 10.0 mi SSE 4.6 mph - N/A   Overcast
6:15 PM 35.6 °F 30.7 °F 20.8 °F 55% 30.00 in 10.0 mi NNE 5.8 mph - N/A   Overcast
6:35 PM 34.0 °F 28.0 °F 23.4 °F 65% 30.02 in 10.0 mi East 6.9 mph - N/A   Overcast
6:55 PM 34.3 °F 27.7 °F 23.0 °F 63% 30.03 in 10.0 mi ENE 8.1 mph - N/A   Overcast
7:15 PM 34.5 °F - 23.2 °F 63% 30.03 in 10.0 mi Calm Calm - N/A   Overcast
7:35 PM 34.0 °F 28.8 °F 24.1 °F 67% 30.03 in 10.0 mi East 5.8 mph - N/A   Overcast
7:55 PM 33.8 °F - 24.4 °F 69% 30.03 in 10.0 mi Calm Calm - N/A   Overcast
8:15 PM 32.9 °F 26.7 °F 25.0 °F 73% 30.03 in 10.0 mi East 6.9 mph - N/A   Overcast
8:35 PM 32.5 °F 28.1 °F 26.1 °F 77% 30.05 in 10.0 mi West 4.6 mph - N/A   Overcast
8:55 PM 33.1 °F 28.7 °F 25.2 °F 73% 30.04 in 10.0 mi ESE 4.6 mph - N/A   Overcast
9:15 PM 32.0 °F 25.6 °F 25.3 °F 76% 30.04 in 10.0 mi WSW 6.9 mph - N/A   Overcast
9:35 PM 32.4 °F - 25.0 °F 74% 30.03 in 10.0 mi Calm Calm - N/A   Overcast
9:55 PM 31.8 °F - 24.8 °F 75% 30.03 in 10.0 mi Calm Calm - N/A   Overcast
10:15 PM 31.8 °F 28.5 °F 24.6 °F 75% 30.03 in 10.0 mi East 3.5 mph - N/A   Overcast
10:35 PM 32.0 °F 27.5 °F 24.8 °F 75% 30.03 in 10.0 mi SE 4.6 mph - N/A   Overcast
10:55 PM 32.0 °F 26.4 °F 25.5 °F 77% 30.03 in 10.0 mi ESE 5.8 mph - N/A   Overcast
11:15 PM 32.0 °F 25.6 °F 25.3 °F 76% 30.03 in 10.0 mi ESE 6.9 mph - N/A   Overcast
11:35 PM 32.0 °F 27.5 °F 26.4 °F 80% 30.03 in 10.0 mi SSE 4.6 mph - N/A   Overcast
11:55 PM 32.0 °F 28.7 °F 26.6 °F 80% 30.02 in 7.0 mi SE 3.5 mph - N/A Snow Light Snow